Location: Lake Almanor
(40.2485°N, 121.1442°W)
Time: 02:57:35
(UTC-08:00)

STARLINK-1066 - Pass Details

Date: 02 February 2020
Orbit: 349 x 350 km, 53.0° (Epoch: 18 February)

Event Time Altitude Azimuth Distance (km) Brightness Sun altitude
Rises 19:01:04 0° 295° (WNW) 2,158 7.7 -18.7°
Maximum altitude 19:05:32 18° 230° (SW) 960 5.5 -19.6°
Drops below altitude 10° 19:07:35 10° 185° (S) 1,305 5.6 -20.0°
Enters shadow 19:07:57 - 180° (S) 1,416 5.8 -20.0°
